Temperature
14 15 15 15 13 12 14 15 16 17 18 18 18 18 16 16 17 16 15 15 15 16 16 16 16 16 16 16 17 17 17 17 17 17 17 17 17 17 17 17 17 17 17 16 16 16 16 16 16
14 14 15 14 12 13 14 15 16 17 18 18 18 18 16 15 15 15 15 15 15 16 16 16 16 16 16 16 16 17 17 17 17 17 17 17 17 17 17 17 17 17 16 16 16 16 16 16 16
14 14 15 12 12 13 15 16 16 17 18 18 17 17 16 15 15 15 15 15 15 16 16 16 16 16 16 16 16 16 16 17 17 17 17 17 17 17 16 16 16 16 16 16 16 16 16 16 16
14 14 14 12 13 14 15 16 16 17 18 18 17 15 15 15 15 15 15 15 15 16 16 16 15 16 16 16 16 16 16 16 16 16 16 16 16 16 16 16 16 16 16 16 16 16 16 16 16
14 14 12 12 13 14 15 16 17 16 16 17 16 14 15 15 15 15 15 15 15 15 15 15 15 15 15 15 15 15 15 15 16 16 16 16 16 16 16 16 16 16 16 16 16 16 16 16 16
14 11 11 12 13 15 15 16 17 15 15 16 16 14 14 14 15 15 15 15 15 15 15 15 15 15 15 15 15 15 15 15 15 15 15 15 15 16 16 16 16 16 16 15 15 15 15 15 15
13 10 12 13 14 15 15 16 15 15 15 15 15 13 14 14 14 14 14 14 14 14 14 14 14 14 14 14 14 14 14 14 14 15 15 15 15 15 15 15 15 15 15 15 15 15 15 15 15
13 10 13 13 14 14 15 15 15 15 14 15 15 13 13 14 14 14 14 14 14 13 13 13 13 13 14 14 14 14 14 14 14 14 14 14 14 14 14 15 15 15 15 15 15 15 15 15 15
13 10 11 13 13 14 14 14 14 15 15 14 14 14 14 14 14 14 14 13 13 13 13 13 13 13 13 13 13 13 13 13 13 13 14 14 14 14 14 14 14 14 14 14 14 14 14 14 14
12 10 12 13 13 13 13 13 14 14 13 13 14 14 14 13 13 13 13 13 13 13 13 12 12 12 12 12 13 13 13 13 13 13 13 13 13 13 13 14 14 14 14 14 14 14 14 14 14
11 10 11 12 13 13 13 13 13 13 12 13 13 13 13 13 13 13 13 13 12 12 12 12 12 12 12 12 12 12 12 12 12 12 12 12 13 13 13 13 13 13 13 13 13 13 13 13 13
11 11 12 12 13 13 12 12 12 12 13 13 13 13 13 13 13 12 12 12 12 12 12 12 12 12 12 12 12 12 12 12 12 12 12 12 12 12 13 13 13 13 13 13 13 13 13 13 13
11 11 12 12 12 12 12 12 11 12 13 13 13 13 13 12 12 12 12 12 12 12 12 11 11 11 11 11 11 11 11 11 11 11 11 11 11 12 12 12 12 12 12 12 12 12 12 12 12
11 11 11 11 11 12 11 11 11 12 13 12 12 12 12 12 12 12 12 11 11 11 11 11 11 11 11 10 10 10 11 10 10 10 11 11 11 11 11 11 11 11 11 11 11 11 12 12 12
11 10 10 10 11 11 11 10 10 12 12 12 12 12 12 12 12 11 11 11 11 11 11 11 11 10 10 10 10 10 10 10 10 10 10 10 10 10 10 10 11 11 11 11 11 11 11 11 11
10 9 9 10 10 10 10 10 11 12 12 12 12 12 12 12 11 11 11 11 11 10 10 10 10 10 10 10 10 10 9 9 9 9 9 9 9 10 10 10 10 10 10 10 10 10 10 11 11
8 8 9 10 10 9 9 9 10 12 11 11 11 11 11 11 11 11 11 10 10 10 10 10 10 10 10 9 9 9 9 9 9 9 9 9 9 9 9 9 9 10 10 10 10 10 10 10 10
8 8 9 9 9 9 8 8 9 10 11 11 11 11 11 11 11 11 10 10 10 10 9 9 9 9 9 9 9 9 9 9 8 8 8 8 8 8 9 9 9 9 9 9 9 9 9 9 9
9 9 9 9 9 9 8 8 9 10 10 10 10 10 11 11 11 10 10 10 9 9 9 9 9 9 9 8 8 8 8 8 8 8 8 8 8 8 8 8 8 9 9 9 9 9 9 9 9
9 9 9 9 9 9 8 8 9 9 9 10 10 10 10 10 10 10 10 9 9 9 9 9 9 9 8 8 8 8 7 7 7 8 8 8 8 8 8 8 8 8 8 8 8 8 8 8 8
9 8 9 9 8 9 8 8 9 9 9 10 10 10 10 10 10 9 9 9 9 9 9 8 8 8 8 8 7 7 7 7 7 7 7 7 7 7 7 7 8 8 8 8 8 8 8 7 8
8 9 9 8 7 7 7 7 8 9 8 8 9 9 9 9 9 9 9 8 8 8 8 8 8 8 8 7 7 7 7 7 7 7 7 7 7 7 7 7 7 7 8 8 8 8 8 8 7
8 8 8 8 7 6 6 6 7 8 8 8 7 9 9 9 9 9 9 8 8 8 8 8 8 8 7 7 7 7 7 6 6 6 7 7 7 7 7 7 7 7 7 7 7 7 7 7 7
8 7 7 5 5 6 7 6 7 6 8 8 7 8 9 9 9 9 8 8 8 8 8 8 8 7 7 7 7 7 6 6 6 6 6 6 6 6 7 7 7 7 7 7 7 7 7 7 7
7 6 6 6 5 6 7 6 7 8 8 8 8 8 9 9 9 8 8 8 8 8 8 7 7 7 7 7 7 6 6 6 6 6 6 6 6 6 6 6 6 6 6 7 7 7 6 7 7
6 6 6 8 7 6 7 6 7 8 8 9 9 9 9 8 8 8 8 8 8 8 8 7 7 7 7 7 6 6 6 6 6 6 6 6 6 6 6 6 6 6 6 6 6 6 6 6 6
6 5 6 5 6 6 6 6 7 8 8 7 8 8 8 8 8 8 8 8 8 7 7 7 7 7 7 6 6 6 6 6 5 5 6 6 6 6 6 6 6 6 6 6 6 6 6 6 6
7 5 4 5 6 7 7 6 7 8 7 7 6 7 8 8 8 8 8 8 7 7 7 7 7 7 7 6 6 6 6 6 5 6 6 6 5 6 6 6 6 5 6 5 5 5 5 5 5
6 6 5 4 4 6 6 7 8 7 7 7 6 7 8 8 8 8 8 8 7 7 7 7 7 7 6 6 6 6 6 6 5 5 5 5 5 5 5 5 5 5 5 5 5 5 5 5 5
6 6 5 5 4 4 5 6 8 7 7 7 7 7 8 8 8 8 7 7 7 7 7 7 7 7 6 6 6 5 5 5 5 5 5 5 5 5 5 5 5 5 5 5 5 5 5 5 5
Wind_Speed
7 6 2 4 5 4 3 5 3 0 1 0 3 7 8 6 4 6 4 2 2 2 3 5 6 7 7 8 8 7 6 6 6 6 6 6 5 5 5 6 7 7 7 7 7 8 8 8 9
4 2 4 5 5 2 4 4 3 3 3 3 4 6 7 5 4 6 1 0 3 4 4 5 6 6 6 6 6 6 5 5 5 5 4 4 4 4 4 5 6 6 6 6 7 8 8 8 9
3 1 4 4 4 5 4 3 5 2 1 3 4 5 5 5 4 3 2 2 4 4 5 5 6 6 6 5 5 5 5 4 4 3 3 3 3 3 3 4 4 5 5 6 6 7 7 8 9
3 4 4 3 4 4 5 4 3 3 4 5 4 5 4 2 3 3 3 5 6 4 5 6 6 6 5 5 4 4 4 4 3 2 2 2 2 3 3 3 3 4 5 6 6 7 7 8 8
4 4 3 1 4 4 3 3 2 3 2 3 4 5 3 3 2 4 4 6 6 3 5 6 7 6 5 5 4 3 3 3 3 2 1 1 1 2 2 2 3 3 4 5 6 7 7 8 8
4 4 4 3 4 3 2 2 1 3 3 2 4 4 1 1 3 4 5 5 4 4 4 6 7 7 6 5 5 4 2 2 2 2 1 1 1 1 2 3 3 3 3 4 6 6 7 7 7
4 4 4 5 3 3 2 1 3 3 3 1 3 4 2 2 1 4 5 5 5 5 4 5 5 5 5 5 5 4 4 2 1 1 2 2 1 1 2 3 3 2 3 3 5 5 6 7 7
5 4 2 3 4 4 1 2 2 4 2 1 3 6 4 4 2 5 5 5 5 4 3 3 4 4 3 3 3 4 4 4 3 2 2 2 2 2 2 3 3 3 3 3 4 5 5 6 6
4 3 3 3 4 4 0 2 2 1 3 2 2 3 4 4 3 5 4 4 3 3 2 2 2 4 4 3 3 4 3 3 3 3 2 2 1 1 2 3 4 4 4 3 3 4 5 5 5
4 4 5 2 3 3 1 1 0 2 2 1 2 1 2 3 4 3 2 1 1 1 2 1 2 2 3 3 3 3 2 3 3 2 2 1 1 1 3 3 4 5 5 4 4 4 5 3 3
4 6 3 1 1 2 1 1 0 3 2 5 5 4 2 2 2 2 2 2 2 2 1 1 1 1 2 2 2 2 2 2 3 2 2 1 1 1 1 1 2 4 4 3 3 3 3 3 2
3 3 4 2 1 1 1 0 1 4 7 6 7 6 4 3 3 4 3 3 3 2 2 2 1 1 1 1 1 1 1 2 2 3 3 1 1 1 2 2 2 2 2 2 2 2 2 3 3
3 2 1 2 1 1 1 3 3 6 7 5 4 4 5 5 4 4 4 3 3 3 3 2 2 2 2 1 2 2 2 2 3 2 3 3 2 3 3 2 2 3 3 3 3 3 3 3 3
3 1 2 3 3 2 3 5 3 8 6 4 5 6 6 6 5 4 3 3 3 3 3 3 3 3 2 2 3 3 3 3 3 3 4 5 4 3 3 3 3 4 4 4 4 4 4 4 4
2 2 3 4 4 3 1 5 8 9 5 5 6 7 6 6 5 6 5 4 4 4 4 3 3 3 3 4 4 3 3 3 3 4 4 5 5 5 4 4 4 5 5 5 4 4 3 3 3
3 2 3 4 4 3 4 7 7 6 6 7 7 6 6 6 6 6 5 5 4 4 4 4 4 3 4 4 4 3 3 3 3 4 4 6 6 6 4 5 5 5 5 4 4 4 4 4 4
1 2 4 4 3 3 5 8 6 4 7 8 7 6 6 5 6 6 6 5 5 4 4 4 4 4 4 4 4 4 3 4 4 4 4 6 6 6 5 5 5 5 5 5 5 4 5 4 4
6 5 4 5 4 3 5 10 10 5 7 8 7 7 6 7 8 6 6 5 4 4 4 4 4 4 4 3 3 3 4 4 4 4 5 6 6 6 5 5 6 5 5 5 5 5 4 5 4
4 4 5 5 3 3 8 12 13 7 6 8 8 7 7 8 7 5 5 4 3 3 3 4 4 4 3 2 2 3 4 4 4 4 6 7 7 7 6 6 5 6 6 7 6 4 5 4 3
4 4 4 5 2 3 7 12 11 8 7 8 8 8 7 6 4 4 4 3 4 4 4 4 4 4 4 4 4 4 4 4 5 4 5 7 7 7 6 6 6 6 6 7 6 5 4 4 4
5 6 5 4 4 3 4 8 6 4 4 4 5 5 5 6 6 5 5 5 5 5 5 5 5 5 5 4 3 3 3 3 3 4 4 5 6 7 6 7 6 6 7 7 7 7 6 5 4
5 4 4 2 1 4 0 4 7 3 3 4 5 5 5 6 5 6 5 6 6 6 5 5 5 5 5 4 3 4 4 5 5 5 5 5 6 6 7 7 6 7 6 7 8 7 6 7 6
5 2 1 1 2 3 2 3 9 2 4 6 6 6 6 6 6 6 6 6 6 5 4 4 4 5 4 4 4 4 5 5 4 4 5 6 5 5 6 6 6 6 6 7 7 7 7 6 6
4 3 4 4 3 3 5 5 7 5 6 6 6 6 6 5 5 5 5 4 4 4 3 4 4 5 5 4 4 4 5 5 5 5 5 4 4 4 5 5 5 5 5 6 7 7 8 7 6
4 4 3 3 2 6 3 4 9 7 6 6 7 6 5 5 4 4 4 4 4 4 4 4 4 5 5 4 4 5 5 5 5 6 5 5 4 4 5 5 4 5 5 5 5 5 6 7 7
5 6 6 5 5 5 2 7 8 5 4 4 4 4 4 4 4 5 5 5 5 5 5 5 4 5 5 4 5 5 5 4 4 5 5 5 4 4 5 5 5 5 5 5 5 4 5 5 6
6 4 5 5 1 3 6 6 7 2 3 2 2 2 4 5 5 5 5 4 4 5 5 5 5 5 5 5 5 5 5 5 5 5 5 4 4 4 4 4 4 5 5 5 5 4 5 5 5
4 6 5 4 4 4 6 6 5 5 5 4 3 4 5 5 5 5 5 4 4 5 5 4 4 4 4 5 4 4 5 5 4 4 3 4 4 4 4 4 4 4 4 4 4 4 4 5 4
5 4 4 4 4 5 4 7 6 6 5 5 6 5 5 5 5 5 4 4 4 4 4 4 3 3 3 4 4 4 4 3 3 3 3 3 3 3 3 4 4 4 4 3 3 4 4 4 4
6 7 7 5 5 4 4 8 5 4 4 3 4 5 5 5 5 4 4 3 3 4 4 4 4 3 4 4 3 3 3 3 2 2 3 2 2 2 3 3 3 4 3 3 3 4 4 4 4
Wind_Direction
343 346 69 61 64 61 239 252 238 143 89 48 94 103 105 96 108 144 200 241 134 107 76 78 77 76 79 79 75 75 83 85 86 93 105 109 118 126 132 145 152 154 154 155 157 157 150 145 146
352 11 61 65 100 155 256 253 207 207 180 144 86 88 84 77 84 114 175 189 112 97 78 71 68 71 73 77 76 74 78 83 84 82 97 112 118 126 137 146 154 158 159 157 156 157 153 153 152
349 83 87 88 144 188 210 220 186 162 70 101 70 63 91 112 120 137 194 143 98 84 71 68 64 61 63 70 78 76 74 76 80 83 85 110 125 130 136 143 152 159 163 164 162 159 160 162 161
55 60 64 95 216 233 204 212 188 117 45 45 90 63 59 52 145 164 150 112 95 79 64 64 61 57 57 60 66 75 75 67 64 79 88 91 125 138 149 150 159 166 167 164 165 164 166 167 168
65 83 95 188 232 244 221 237 206 109 93 42 87 89 55 348 91 114 97 96 97 88 60 60 56 55 54 50 48 60 73 64 50 47 58 75 105 148 158 166 163 167 170 168 168 167 171 176 177
63 80 122 204 226 228 263 273 124 92 98 70 91 103 137 300 90 95 89 90 99 101 63 55 54 51 48 44 36 34 46 55 46 31 360 333 12 165 180 181 177 166 168 171 173 175 177 180 182
113 122 179 201 198 203 235 21 103 115 90 105 125 118 169 271 149 102 89 85 79 76 69 45 43 46 47 40 28 23 19 9 5 9 335 315 313 298 221 198 195 189 178 179 177 179 186 188 187
132 120 205 218 190 201 263 45 80 107 125 1 102 139 185 224 171 97 76 67 61 63 66 50 35 32 21 13 11 10 7 1 344 333 329 322 296 292 273 229 213 207 195 184 182 184 189 197 196
101 94 206 221 188 189 126 70 2 45 87 30 49 159 184 167 111 84 67 46 44 35 28 41 32 15 4 358 349 354 342 342 345 334 313 320 304 270 268 250 230 217 209 202 199 198 195 196 198
102 165 215 222 185 169 81 94 66 52 45 31 24 29 89 108 109 113 122 108 61 354 351 18 12 6 7 351 348 338 328 327 329 332 307 311 302 275 272 258 230 225 217 215 220 211 195 187 189
157 189 201 228 185 126 83 355 3 135 224 206 192 183 161 143 133 147 181 189 204 216 276 308 304 349 6 350 342 340 333 321 315 307 294 288 276 266 278 250 225 214 209 199 213 202 187 180 186
169 224 192 205 172 104 173 250 298 203 219 211 195 185 184 189 198 196 198 215 221 218 243 260 269 298 299 324 309 304 314 313 299 283 277 261 261 257 248 234 216 192 190 198 197 195 198 196 201
196 221 196 200 183 206 228 239 245 244 238 227 210 201 195 202 213 211 194 210 226 238 246 249 250 259 272 282 278 283 259 267 264 265 267 246 243 241 246 241 223 209 195 199 206 205 203 207 213
188 196 256 248 239 240 238 264 236 249 231 208 203 214 220 214 211 208 209 223 241 244 251 248 245 244 248 259 261 260 263 262 258 251 252 245 229 232 232 235 229 218 207 203 208 212 205 209 211
92 34 313 251 210 211 180 273 233 237 212 210 217 223 228 225 215 208 209 213 225 238 247 248 250 243 246 257 258 265 264 260 254 253 246 246 236 225 226 226 231 226 213 206 210 214 205 212 217
64 65 282 265 182 176 159 258 253 226 195 215 226 230 232 233 224 220 216 217 222 229 247 256 271 265 256 259 258 259 262 256 254 255 247 245 242 227 224 223 231 231 215 203 205 205 202 209 211
65 205 235 270 198 174 191 251 268 228 201 217 224 228 234 243 238 231 226 222 225 229 246 261 263 255 257 263 265 264 256 254 258 254 249 245 241 233 227 229 230 229 217 210 214 208 196 202 213
201 210 229 237 228 189 231 260 272 254 213 222 225 233 236 237 240 235 230 231 232 235 244 256 262 259 262 273 279 278 269 258 256 254 250 245 239 235 235 234 226 223 218 213 211 209 203 196 202
176 192 240 249 231 219 248 265 272 260 231 230 233 233 234 239 243 235 229 234 240 248 255 260 262 271 277 280 267 267 267 260 255 252 252 248 243 238 237 241 227 220 219 213 209 201 200 195 176
213 231 257 283 287 240 268 275 269 247 225 220 221 224 229 238 248 247 248 248 249 249 255 263 257 263 266 255 248 246 255 255 254 254 256 251 246 239 243 232 230 223 220 212 206 192 195 198 177
226 214 227 249 315 312 300 300 274 251 217 214 219 219 224 222 229 241 249 253 258 257 254 263 258 260 262 254 269 282 276 270 267 265 258 254 251 242 238 237 229 229 218 211 204 199 193 197 193
228 215 202 221 338 291 158 285 284 255 242 233 233 235 238 237 236 239 244 254 256 253 255 258 258 257 257 249 256 262 265 266 266 263 260 261 255 251 241 236 229 228 224 214 205 203 197 188 195
198 184 159 197 178 298 249 223 282 269 248 248 242 237 239 237 229 234 241 247 254 248 253 261 263 266 258 248 245 253 266 266 265 263 264 260 256 249 247 235 227 226 225 219 210 201 200 195 197
144 66 46 43 74 274 226 195 271 237 229 248 243 241 247 246 240 244 252 257 265 258 259 265 268 275 264 255 252 249 260 271 273 273 268 263 259 253 245 237 226 227 227 218 213 206 203 203 201
112 101 45 355 337 249 215 209 249 245 229 223 233 242 253 249 239 252 261 264 269 270 269 269 268 279 275 265 263 255 256 259 257 261 261 262 259 258 246 238 224 225 223 218 213 207 209 204 199
173 154 166 201 227 272 254 234 252 253 249 242 241 246 256 252 244 247 250 246 255 266 270 266 265 273 273 266 269 262 258 255 254 254 250 252 250 246 242 235 226 226 221 219 205 207 214 212 207
153 186 170 142 188 274 267 275 297 250 324 302 275 274 256 248 247 250 254 248 252 262 268 260 257 269 271 264 264 266 262 253 253 256 250 250 251 246 233 231 228 227 221 213 200 209 210 207 211
153 148 122 144 171 249 279 264 246 253 267 282 269 256 258 253 251 253 252 255 259 260 266 262 253 257 264 266 261 263 261 255 252 253 253 251 248 237 224 221 223 226 218 207 206 204 203 202 210
159 163 154 148 174 179 258 269 226 223 230 243 251 253 252 249 248 248 256 265 268 274 273 277 271 276 276 270 267 272 275 264 252 249 252 249 249 232 220 218 219 224 222 212 206 205 195 198 213
184 181 159 169 215 196 215 268 267 234 236 238 259 266 262 252 253 253 262 273 281 282 282 279 276 276 277 273 268 267 271 274 271 270 266 254 248 230 216 207 211 220 218 209 203 203 201 200 213
Height
1496 1498 1499 1502 1505 1514 1513 1504 1496 1493 1492 1492 1492 1492 1494 1499 1503 1510 1509 1507 1507 1507 1507 1507 1508 1508 1508 1508 1508 1509 1509 1509 1510 1511 1511 1512 1512 1512 1513 1513 1513 1514 1514 1515 1515 1516 1517 1517 1518
1496 1498 1501 1501 1509 1517 1511 1500 1495 1492 1491 1492 1492 1493 1495 1500 1502 1504 1505 1506 1507 1507 1507 1507 1507 1507 1507 1507 1507 1508 1508 1508 1509 1509 1510 1510 1511 1511 1511 1512 1512 1513 1513 1514 1514 1515 1516 1516 1517
1496 1498 1500 1503 1509 1511 1503 1495 1492 1491 1490 1491 1493 1495 1497 1501 1503 1504 1505 1506 1506 1506 1506 1506 1506 1506 1506 1506 1506 1506 1507 1507 1507 1508 1508 1509 1509 1509 1510 1510 1511 1511 1512 1512 1513 1514 1514 1515 1515
1497 1499 1501 1506 1506 1501 1496 1492 1490 1490 1490 1491 1492 1496 1499 1502 1503 1504 1505 1505 1505 1505 1505 1505 1505 1505 1505 1505 1505 1505 1505 1505 1505 1506 1506 1507 1507 1507 1508 1508 1509 1510 1510 1511 1511 1512 1512 1513 1514
1496 1498 1503 1507 1503 1497 1492 1491 1490 1490 1491 1492 1493 1497 1500 1502 1503 1504 1504 1504 1504 1504 1504 1504 1504 1503 1503 1503 1503 1503 1503 1503 1503 1504 1504 1504 1505 1505 1506 1506 1507 1507 1508 1508 1509 1510 1511 1511 1512
1496 1498 1507 1509 1501 1494 1492 1490 1490 1491 1492 1493 1494 1497 1501 1502 1502 1503 1503 1503 1503 1503 1503 1502 1502 1502 1501 1501 1501 1500 1500 1500 1500 1501 1501 1502 1502 1502 1503 1504 1504 1505 1506 1506 1507 1508 1509 1509 1510
1496 1500 1503 1501 1498 1495 1491 1490 1490 1491 1492 1494 1494 1497 1500 1501 1502 1502 1502 1502 1502 1502 1501 1501 1500 1500 1500 1499 1498 1498 1498 1498 1498 1498 1498 1499 1499 1499 1500 1500 1501 1502 1503 1504 1504 1505 1506 1507 1507
1494 1499 1498 1498 1496 1494 1491 1490 1491 1491 1492 1494 1494 1496 1498 1500 1501 1501 1501 1501 1501 1500 1500 1499 1499 1498 1497 1497 1496 1496 1495 1495 1495 1495 1495 1496 1496 1496 1496 1497 1498 1499 1500 1501 1501 1502 1503 1504 1505
1494 1501 1501 1496 1494 1492 1490 1491 1491 1492 1492 1493 1494 1495 1496 1498 1499 1499 1499 1499 1499 1499 1498 1498 1497 1496 1495 1494 1494 1493 1493 1493 1493 1493 1493 1493 1493 1493 1493 1494 1495 1496 1496 1497 1498 1499 1500 1501 1502
1493 1501 1496 1492 1490 1490 1490 1490 1491 1491 1492 1493 1493 1494 1495 1496 1497 1497 1497 1497 1497 1497 1496 1496 1495 1494 1493 1492 1491 1490 1490 1490 1490 1489 1490 1490 1490 1490 1490 1490 1491 1492 1493 1494 1495 1496 1497 1498 1498
1491 1494 1491 1490 1489 1489 1489 1490 1490 1491 1491 1491 1491 1492 1494 1495 1495 1495 1495 1495 1495 1495 1494 1494 1493 1492 1490 1489 1488 1487 1486 1486 1486 1486 1486 1486 1486 1486 1486 1487 1487 1488 1489 1490 1491 1492 1493 1494 1495
1490 1490 1489 1489 1488 1489 1489 1489 1490 1489 1488 1488 1489 1490 1491 1492 1492 1493 1493 1493 1493 1493 1492 1491 1490 1489 1488 1486 1485 1484 1483 1482 1482 1482 1482 1482 1482 1482 1482 1483 1483 1484 1485 1486 1487 1488 1489 1490 1491
1489 1489 1488 1488 1488 1488 1488 1488 1488 1486 1485 1486 1487 1488 1488 1489 1490 1490 1491 1491 1491 1490 1489 1488 1487 1486 1484 1483 1482 1480 1479 1478 1478 1478 1478 1478 1478 1478 1478 1479 1479 1480 1481 1481 1482 1484 1485 1486 1487
1487 1488 1487 1487 1487 1487 1487 1486 1487 1481 1482 1483 1484 1485 1485 1486 1487 1487 1488 1487 1487 1487 1486 1485 1483 1482 1481 1479 1478 1476 1475 1474 1474 1473 1473 1474 1474 1474 1474 1474 1475 1476 1476 1477 1478 1480 1480 1481 1483
1487 1489 1488 1485 1485 1485 1486 1485 1482 1479 1481 1481 1481 1482 1483 1483 1484 1484 1484 1484 1484 1483 1482 1481 1479 1478 1476 1475 1473 1472 1470 1470 1469 1468 1468 1469 1469 1469 1470 1470 1470 1471 1472 1473 1474 1475 1476 1477 1478
1488 1491 1492 1484 1483 1484 1488 1485 1477 1476 1478 1478 1479 1479 1480 1480 1481 1481 1480 1480 1479 1478 1477 1476 1475 1473 1471 1470 1468 1467 1465 1464 1464 1463 1463 1464 1464 1465 1465 1465 1466 1466 1467 1468 1469 1470 1471 1473 1474
1492 1495 1491 1486 1482 1483 1485 1481 1474 1474 1475 1475 1476 1476 1476 1477 1477 1476 1476 1475 1475 1474 1473 1471 1470 1468 1466 1465 1463 1462 1460 1459 1459 1458 1458 1458 1459 1459 1460 1460 1461 1462 1462 1463 1464 1466 1467 1468 1470
1492 1493 1488 1486 1482 1482 1483 1478 1472 1472 1472 1472 1472 1473 1473 1472 1472 1472 1472 1471 1470 1469 1468 1467 1465 1463 1462 1460 1458 1457 1455 1454 1453 1453 1453 1453 1453 1454 1455 1455 1456 1457 1458 1458 1460 1461 1462 1464 1465
1483 1485 1485 1482 1479 1481 1480 1475 1470 1468 1469 1468 1468 1468 1468 1468 1468 1468 1467 1467 1466 1465 1464 1462 1460 1459 1457 1455 1453 1451 1450 1449 1448 1448 1448 1448 1448 1449 1449 1450 1450 1451 1452 1453 1455 1456 1457 1459 1461
1482 1483 1483 1481 1478 1479 1477 1472 1466 1463 1463 1462 1463 1463 1463 1463 1463 1463 1463 1462 1461 1460 1459 1457 1456 1454 1453 1451 1449 1447 1445 1444 1443 1443 1443 1443 1443 1443 1443 1444 1444 1446 1447 1448 1450 1451 1452 1454 1457
1481 1482 1481 1481 1480 1478 1478 1471 1463 1458 1458 1458 1459 1459 1459 1459 1458 1458 1458 1457 1456 1455 1454 1453 1451 1450 1448 1446 1444 1442 1441 1439 1438 1437 1437 1437 1437 1437 1437 1438 1439 1440 1442 1443 1444 1447 1447 1449 1452
1480 1477 1478 1479 1484 1485 1482 1481 1462 1458 1457 1456 1455 1455 1455 1455 1454 1454 1453 1452 1451 1451 1450 1449 1447 1445 1443 1441 1439 1438 1436 1434 1433 1432 1432 1432 1432 1431 1432 1432 1434 1435 1437 1438 1439 1442 1444 1445 1446
1476 1475 1477 1479 1482 1486 1483 1485 1466 1459 1457 1454 1452 1451 1451 1450 1450 1450 1449 1448 1447 1446 1445 1444 1442 1440 1439 1437 1436 1434 1432 1430 1428 1428 1427 1427 1427 1427 1427 1427 1429 1430 1432 1433 1435 1437 1439 1440 1441
1473 1477 1480 1485 1488 1487 1478 1482 1467 1460 1452 1449 1448 1447 1447 1447 1446 1446 1445 1445 1443 1442 1441 1440 1438 1436 1434 1433 1431 1430 1428 1426 1424 1423 1422 1422 1422 1422 1422 1423 1424 1426 1427 1428 1430 1432 1434 1436 1437
1474 1483 1490 1488 1493 1483 1474 1475 1462 1449 1446 1445 1444 1443 1443 1443 1443 1442 1442 1441 1439 1438 1437 1436 1434 1432 1430 1429 1427 1426 1424 1422 1420 1419 1419 1418 1417 1417 1417 1418 1419 1421 1422 1424 1426 1427 1429 1430 1432
1473 1477 1484 1483 1484 1479 1472 1470 1453 1444 1442 1441 1441 1440 1440 1440 1439 1439 1438 1437 1436 1435 1434 1432 1430 1429 1427 1425 1423 1422 1421 1419 1417 1416 1415 1414 1414 1413 1414 1414 1415 1417 1418 1420 1421 1423 1424 1426 1428
1472 1476 1475 1484 1484 1481 1473 1463 1450 1441 1440 1440 1439 1438 1437 1437 1436 1436 1435 1434 1433 1432 1430 1429 1427 1425 1423 1422 1420 1418 1417 1415 1414 1413 1412 1411 1411 1410 1411 1411 1412 1413 1414 1415 1417 1418 1420 1422 1424
1466 1470 1479 1483 1482 1476 1468 1463 1454 1443 1441 1439 1437 1435 1434 1434 1434 1433 1432 1431 1430 1429 1427 1426 1424 1422 1420 1418 1417 1415 1413 1412 1410 1409 1408 1408 1407 1407 1407 1408 1409 1409 1410 1412 1413 1414 1416 1418 1420
1467 1469 1472 1480 1480 1477 1472 1457 1439 1438 1436 1436 1434 1433 1432 1431 1430 1430 1429 1428 1427 1426 1425 1423 1421 1419 1417 1416 1414 1412 1410 1409 1408 1406 1405 1405 1404 1404 1405 1405 1406 1406 1407 1408 1409 1410 1412 1414 1415
1460 1462 1468 1473 1477 1478 1475 1457 1433 1434 1433 1432 1432 1430 1429 1428 1428 1427 1427 1425 1424 1423 1422 1420 1418 1417 1415 1413 1411 1410 1408 1407 1405 1404 1403 1403 1402 1402 1402 1403 1403 1403 1404 1405 1406 1407 1409 1410 1412